Location: Unspecified
(0.0000°N, 0.0000°E)
Time: 07:58:21
(UTC+00:00)

deb NOAA 5 - Pass Details

Date: 21 February 2026
Orbit: 747 x 1048 km, 102.9° (Epoch: 14 March)

Event Time Altitude Azimuth Distance (km) Brightness Sun altitude
Rises 05:04:01 0° 129° (SE) 3,449 ? -17.1°
Reaches altitude 10° 05:07:16 10° 108° (ESE) 2,569 ? -16.3°
Maximum altitude 05:10:43 16° 71° (ENE) 2,196 ? -15.5°
Drops below altitude 10° 05:14:17 10° 34° (NNE) 2,689 ? -14.6°
Sets 05:17:46 0° 14° (NNE) 3,689 ? -13.7°
